Flag for Germany Weather past 2 weeks in Gaggenau, Baden-Württemberg, Germany

Now
66 °F

Thundershowers. Broken clouds.


Feels Like: 66 °F
Forecast: 58 / 74 °F
Wind: 10 mph from South

Location: Karlsruhe - Baden Wurttemberg

Current Time: Aug 29, 2014 at 8:26:06 PM

Latest Report: Aug 29, 2014 at 7:50 PM


Visibility: N/A

Pressure: 30.04 "Hg

Humidity: 88%

Dew point: 63 °F

Location of GaggenauLocation

Historic Weather in Gaggenau — Graph

°F

Gaggenau temperature yesterday

Maximum temperature yesterday: 75 °F (at 3:20 PM)
Minimum temperature yesterday: 54 °F (at 6:50 AM)
Average temperature yesterday: 66 °F

Past Weeks' High & Low Weather Summary

 TemperatureHumidityPressure
High75 °F (Aug 28, 3:20 PM)94% (Aug 15, 10:20 PM)30.15 "Hg (Aug 15, 10:20 PM)
Low45 °F (Aug 25, 4:50 AM)38% (Aug 19, 5:50 PM)29.68 "Hg (Aug 26, 4:50 AM)
Average61 °F71%29.99 "Hg
* Reported Aug 14 7:20 PM — Aug 29 7:20 PM, Gaggenau, Weather by CustomWeather, © 2014

Note: Actual official high and low records may vary slightly from our data, if they occured in-between our weather recording intervals... More about our weather records

Advertising

Gaggenau weather history for previous 24 hours

 ConditionsComfort  
Time TempWeatherWind HumidityBarometerVisibility
7:20 PM
Aug 29
66 °FSprinkles. Broken clouds.6 mph83%30.04 "Hg6 mi
6:53 PM70 °FRain showers. Broken clouds.2 mph73%30.01 "Hg6 mi
6:20 PM72 °FScattered showers. Broken clouds.9 mph65%30.01 "HgN/A
5:50 PM73 °FScattered showers. Broken clouds.7 mph61%30.01 "HgN/A
5:20 PM73 °FScattered showers. Broken clouds.8 mph61%30.01 "HgN/A
4:50 PM75 °FScattered showers. Broken clouds.3 mph54%30.01 "HgN/A
4:20 PM73 °FScattered showers. Broken clouds.6 mph61%30.04 "HgN/A
3:50 PM73 °FScattered showers. Scattered clouds.5 mph57%30.04 "HgN/A
3:20 PM75 °FScattered showers. Scattered clouds.5 mph57%30.04 "Hg6 mi
2:50 PM73 °FScattered clouds.5 mph57%30.04 "HgN/A
2:20 PM75 °FPartly sunny.6 mph54%30.04 "HgN/A
1:50 PM73 °FPartly sunny.6 mph57%30.04 "HgN/A
1:20 PM73 °FScattered clouds.3 mph57%30.04 "HgN/A
12:50 PM73 °FPassing clouds.3 mph61%30.04 "HgN/A
12:20 PM70 °FPassing clouds.2 mph69%30.07 "HgN/A
11:50 AM70 °FPassing clouds.6 mph69%30.07 "HgN/A
11:20 AM68 °FPassing clouds.6 mph69%30.07 "HgN/A
10:50 AM66 °FPassing clouds.6 mph78%30.07 "HgN/A
10:20 AM66 °FSunny.6 mph78%30.07 "Hg10 mi
9:50 AM66 °FSunny.6 mph78%30.04 "Hg10 mi
9:20 AM64 °FSunny.6 mph83%30.04 "Hg10 mi
8:50 AM64 °FSunny.7 mph83%30.04 "Hg10 mi
8:20 AM63 °FScattered showers. Partly sunny.5 mph88%30.04 "HgN/A
7:50 AM63 °FSunny.6 mph88%30.04 "Hg10 mi
7:20 AM63 °FClear.6 mph83%30.04 "Hg10 mi
6:50 AM63 °FClear.5 mph83%30.04 "Hg10 mi
6:20 AM61 °FPassing clouds.5 mph88%30.01 "HgN/A
5:50 AM63 °FPassing clouds.6 mph83%30.04 "HgN/A
5:20 AM63 °FClear.6 mph88%30.04 "Hg10 mi
4:50 AM63 °FPassing clouds.5 mph88%30.04 "HgN/A
4:20 AM61 °FClear.5 mph88%30.04 "Hg10 mi
11:20 PM
Aug 28
64 °FClear.No wind88%30.01 "Hg10 mi
10:50 PM66 °FClear.No wind78%30.01 "Hg6 mi
10:20 PM64 °FClear.2 mph83%30.01 "Hg10 mi
9:50 PM68 °FClear.2 mph73%30.01 "Hg10 mi
9:20 PM66 °FClear.No wind78%30.01 "Hg10 mi
8:50 PM68 °FFog.1 mph73%30.01 "HgN/A
8:20 PM70 °FSunny.No wind69%30.01 "Hg10 mi
Weather by CustomWeather, © 2014

See weather overviewHow to use our weather pages